User: anonymous   Login
Location: Brno
(49.2000°N, 16.6330°E)
Time: 13:38:44
(UTC+02:00)
Language:

CARTOSAT-1 - Orbit

View from above orbital plane
View from above orbital plane
View from above satellite
View from above satellite

Ground track
Ground track

The orbit data is extracted from the following two-line orbital elements,

1 28649U 05017A   15111.11019565  .00001316  00000-0  16633-3 0  9992
2 28649 097.7996 183.6893 0002615 070.4084 289.7508 14.83503068539142
Epoch (UTC): 21 April 2015 02:38:40
Eccentricity: 0.0002615
inclination: 97.7996°
perigee height: 616 km
apogee height: 620 km
right ascension of ascending node: 183.6893°
argument of perigee: 70.4084°
revolutions per day: 14.83503068
mean anomaly at epoch: 289.7508°
orbit number at epoch: 53914

The dashed part of the orbit path shows where the satellite is in the earth's shadow,  

DLR